Change the Weather History Date:

Tuesday, November 13, 2012

  Actual Average (PADK) Record (PADK)
Temperature  
Mean Temperature 40 °F -  
Max Temperature 42 °F 42 °F 53 °F (2013)
Min Temperature 39 °F 33 °F 25 °F (1983)
Degree Days  
Heating Degree Days 24    
Moisture  
Dew Point -9 °F    
Average Humidity 12    
Maximum Humidity 13    
Minimum Humidity 11    
Precipitation  
Precipitation 0.00 in - - ()
Sea Level Pressure  
Sea Level Pressure 29.01 in    
Wind  
Wind Speed 36 mph (WSW)    
Max Wind Speed 51 mph    
Max Gust Speed 69 mph    
Visibility 7 miles    
Events      
Averages and records for this station are not official NWS values.
T = Trace of Precipitation, MM = Missing Value Source: NWS Daily Summary

Daily Weather History Graph

Daily Weather History Graph

Search for Another Location

Airport or City:

Trip Planner

Search our weather history database for the weather conditions in past years. The results will help you decide how hot, cold, wet, or windy it might be!

Date:

Astronomy

Nov. 13, 2012 Rise Set
Actual Time 8:55 AM HAST 5:46 PM HAST
Civil Twilight 8:17 AM HAST 6:23 PM HAST
Nautical Twilight 7:36 AM HAST 7:05 PM HAST
Astronomical Twilight 6:56 AM HAST 7:45 PM HAST
Moon 8:54 AM HAST (11/13) 5:46 PM HAST (11/13)
Length of Visible Light 10h 06m
Length of Day
8h 51m
Waning Crescent, 0% of the Moon is Illuminated
Nov 13
Waning Crescent
Nov 13
New
Nov 20
First Quarter
Nov 28
Full
Dec 6
Last Quarter

Hourly Weather History & Observations

Time (HAST) Temp. Windchill Dew Point Humidity Pressure Visibility Wind Dir Wind Speed Gust Speed Precip Events Conditions
12:16 AM 41.0 °F 27.1 °F -7.6 °F 13% 28.65 in 5.0 mi SSE 50.6 mph 66.7 mph N/A   Overcast
12:36 AM 39.2 °F 24.8 °F -9.4 °F 12% 28.62 in 4.0 mi SSE 48.3 mph 59.8 mph N/A   Overcast
12:56 AM 39.2 °F 25.1 °F -9.4 °F 12% 28.59 in 3.0 mi SSE 46.0 mph 69.0 mph N/A   Overcast
1:16 AM 39.2 °F 26.0 °F -9.4 °F 12% 28.58 in 2.5 mi South 39.1 mph 66.7 mph N/A   Overcast
1:36 AM 39.2 °F 25.7 °F -9.4 °F 12% 28.56 in 2.0 mi SSE 41.4 mph 61.0 mph N/A   Overcast
1:56 AM 39.2 °F 26.1 °F -9.4 °F 12% 28.54 in 3.0 mi SSE 38.0 mph 56.4 mph N/A   Overcast
2:16 AM 39.2 °F 26.0 °F -9.4 °F 12% 28.53 in 3.0 mi South 39.1 mph 50.6 mph N/A   Overcast
2:36 AM 41.0 °F 28.5 °F -9.4 °F 12% 28.52 in 3.0 mi South 39.1 mph 49.5 mph N/A   Overcast
2:56 AM 41.0 °F 29.5 °F -9.4 °F 12% 28.52 in 6.0 mi South 32.2 mph 47.2 mph N/A   Overcast
3:16 AM 42.8 °F 33.5 °F -7.6 °F 12% 28.51 in 10.0 mi SSW 23.0 mph 40.3 mph N/A   Overcast
3:36 AM 39.2 °F 29.6 °F -9.4 °F 12% 28.52 in 2.0 mi SSW 19.6 mph 41.4 mph N/A   Overcast
3:56 AM 41.0 °F 29.8 °F -9.4 °F 12% 28.53 in 6.0 mi SSW 29.9 mph 42.6 mph N/A   Overcast
4:16 AM 41.0 °F 31.6 °F -9.4 °F 12% 28.54 in 7.0 mi SSW 20.7 mph 43.7 mph N/A   Overcast
4:36 AM 41.0 °F 31.6 °F -9.4 °F 12% 28.55 in 7.0 mi SW 20.7 mph 31.1 mph N/A   Mostly Cloudy
4:56 AM 42.8 °F 34.5 °F -9.4 °F 11% 28.57 in 10.0 mi SW 18.4 mph 32.2 mph N/A   Overcast
5:16 AM 41.0 °F 33.5 °F -9.4 °F 12% 28.59 in 10.0 mi SW 13.8 mph 17.3 mph N/A   Overcast
5:36 AM 39.2 °F 29.6 °F -9.4 °F 12% 28.61 in 8.0 mi West 19.6 mph 29.9 mph N/A   Overcast
5:56 AM 39.2 °F 29.0 °F -9.4 °F 12% 28.64 in 7.0 mi West 21.9 mph 29.9 mph N/A   Overcast
6:16 AM 39.2 °F 28.3 °F -9.4 °F 12% 28.67 in 6.0 mi West 25.3 mph 32.2 mph N/A   Overcast
6:36 AM 41.0 °F 30.2 °F -9.4 °F 12% 28.68 in 10.0 mi West 27.6 mph 38.0 mph N/A   Overcast
6:56 AM 42.8 °F 32.7 °F -9.4 °F 11% 28.70 in 10.0 mi West 27.6 mph 40.3 mph N/A   Mostly Cloudy
7:16 AM 41.0 °F 30.0 °F -9.4 °F 12% 28.72 in 10.0 mi West 28.8 mph 38.0 mph N/A   Mostly Cloudy
7:36 AM 41.0 °F 31.1 °F -9.4 °F 12% 28.76 in 5.0 mi West 23.0 mph 38.0 mph N/A   Overcast
7:56 AM 39.2 °F 26.8 °F -9.4 °F 12% 28.78 in 3.0 mi West 33.4 mph 48.3 mph N/A   Overcast
8:16 AM 41.0 °F 29.7 °F -9.4 °F 12% 28.80 in 5.0 mi West 31.1 mph 49.5 mph N/A   Overcast
8:36 AM 39.2 °F 27.0 °F -9.4 °F 12% 28.83 in 5.0 mi West 32.2 mph 41.4 mph N/A   Overcast
8:56 AM 41.0 °F 29.0 °F -9.4 °F 12% 28.85 in 7.0 mi West 35.7 mph 50.6 mph N/A   Overcast
9:16 AM 39.2 °F 27.6 °F -9.4 °F 12% 28.89 in 6.0 mi West 28.8 mph 43.7 mph N/A   Overcast
9:36 AM 39.2 °F 27.0 °F -9.4 °F 12% 28.91 in 4.0 mi West 32.2 mph 47.2 mph N/A   Overcast
9:56 AM 39.2 °F 26.1 °F -9.4 °F 12% 28.94 in 6.0 mi West 38.0 mph 55.2 mph N/A   Overcast
10:16 AM 41.0 °F 28.6 °F -9.4 °F 12% 28.95 in 7.0 mi West 38.0 mph 52.9 mph N/A   Overcast
10:36 AM 41.0 °F 29.3 °F -9.4 °F 12% 28.98 in 8.0 mi West 33.4 mph 43.7 mph N/A   Overcast
10:56 AM 39.2 °F 28.0 °F -9.4 °F 12% 29.00 in 5.0 mi West 26.5 mph 41.4 mph N/A   Overcast
11:16 AM 39.2 °F 26.5 °F -9.4 °F 12% 29.02 in 7.0 mi West 35.7 mph 52.9 mph N/A   Overcast
11:36 AM 39.2 °F 27.0 °F -9.4 °F 12% 29.04 in 4.0 mi West 32.2 mph 51.8 mph N/A   Overcast
11:56 AM 39.2 °F 29.0 °F -9.4 °F 12% 29.06 in 4.0 mi West 21.9 mph 49.5 mph N/A   Overcast
12:16 PM 39.2 °F 27.4 °F -9.4 °F 12% 29.07 in 5.0 mi West 29.9 mph 44.9 mph N/A   Overcast
12:36 PM 39.2 °F 27.4 °F -9.4 °F 12% 29.08 in 7.0 mi West 29.9 mph 41.4 mph N/A   Overcast
12:56 PM 41.0 °F 29.5 °F -9.4 °F 12% 29.09 in 6.0 mi West 32.2 mph 48.3 mph N/A   Overcast
1:16 PM 39.2 °F 26.8 °F -9.4 °F 12% 29.10 in 7.0 mi West 33.4 mph 49.5 mph N/A   Overcast
1:36 PM 39.2 °F 26.6 °F -9.4 °F 12% 29.12 in 5.0 mi West 34.5 mph 50.6 mph N/A   Overcast
1:56 PM 41.0 °F 29.7 °F -9.4 °F 12% 29.13 in 8.0 mi West 31.1 mph 47.2 mph N/A   Overcast
2:16 PM 41.0 °F 29.5 °F -9.4 °F 12% 29.15 in 7.0 mi West 32.2 mph 54.1 mph N/A   Overcast
2:36 PM 41.0 °F 28.5 °F -9.4 °F 12% 29.16 in 7.0 mi West 39.1 mph 52.9 mph N/A   Overcast
2:56 PM 42.8 °F 32.7 °F -9.4 °F 11% 29.18 in 9.0 mi West 27.6 mph 43.7 mph N/A   Mostly Cloudy
3:16 PM 42.8 °F 31.6 °F -9.4 °F 11% 29.18 in 8.0 mi West 34.5 mph 49.5 mph N/A   Overcast
3:36 PM 42.8 °F 31.4 °F -7.6 °F 12% 29.21 in 9.0 mi West 35.7 mph 57.5 mph N/A   Overcast
3:56 PM 42.8 °F 30.8 °F -9.4 °F 11% 29.22 in 8.0 mi West 40.3 mph 51.8 mph N/A   Overcast
4:16 PM 42.8 °F 31.8 °F -9.4 °F 11% 29.22 in 8.0 mi West 33.4 mph 43.7 mph N/A   Overcast
4:36 PM 41.0 °F 28.8 °F -9.4 °F 12% 29.23 in 8.0 mi West 36.8 mph 50.6 mph N/A   Mostly Cloudy
4:56 PM 42.8 °F 32.1 °F -9.4 °F 11% 29.25 in 8.0 mi West 31.1 mph 47.2 mph N/A   Overcast
5:16 PM 42.8 °F 32.1 °F -9.4 °F 11% 29.26 in 9.0 mi West 31.1 mph 50.6 mph N/A   Mostly Cloudy
5:36 PM 42.8 °F 32.7 °F -9.4 °F 11% 29.28 in 10.0 mi West 27.6 mph 46.0 mph N/A   Overcast
5:56 PM 42.8 °F 32.3 °F -9.4 °F 11% 29.29 in 10.0 mi West 29.9 mph 55.2 mph N/A   Overcast
6:16 PM 41.0 °F 28.5 °F -9.4 °F 12% 29.31 in 9.0 mi West 39.1 mph 57.5 mph N/A   Overcast
6:36 PM 41.0 °F 29.5 °F -9.4 °F 12% 29.32 in 8.0 mi West 32.2 mph 49.5 mph N/A   Overcast
6:56 PM 41.0 °F 27.7 °F -9.4 °F 12% 29.32 in 8.0 mi West 44.9 mph 58.7 mph N/A   Overcast
7:16 PM 39.2 °F 24.9 °F -9.4 °F 12% 29.33 in 7.0 mi West 47.2 mph 65.6 mph N/A   Overcast
7:36 PM 39.2 °F 24.9 °F -9.4 °F 12% 29.35 in 7.0 mi West 47.2 mph 58.7 mph N/A   Overcast
7:56 PM 41.0 °F 28.0 °F -9.4 °F 12% 29.37 in 7.0 mi West 42.6 mph 62.1 mph N/A   Overcast
8:16 PM 41.0 °F 29.0 °F -9.4 °F 12% 29.41 in 10.0 mi West 35.7 mph 54.1 mph N/A   Overcast
8:36 PM 41.0 °F 27.7 °F -9.4 °F 12% 29.42 in 9.0 mi West 44.9 mph 58.7 mph N/A   Overcast
8:56 PM 42.8 °F 31.3 °F -9.4 °F 11% 29.44 in 10.0 mi West 36.8 mph 66.7 mph N/A   Overcast
9:16 PM 42.8 °F 31.6 °F -9.4 °F 11% 29.46 in 10.0 mi West 34.5 mph 54.1 mph N/A   Overcast
9:36 PM 42.8 °F 31.3 °F -9.4 °F 11% 29.47 in 10.0 mi West 36.8 mph 52.9 mph N/A   Overcast
9:56 PM 41.0 °F 28.5 °F -9.4 °F 12% 29.47 in 10.0 mi West 39.1 mph 50.6 mph N/A   Overcast
10:16 PM 42.8 °F 31.6 °F -9.4 °F 11% 29.49 in 10.0 mi West 34.5 mph 58.7 mph N/A   Overcast
10:36 PM 41.0 °F 27.7 °F -9.4 °F 12% 29.49 in 10.0 mi West 44.9 mph 61.0 mph N/A   Overcast
10:56 PM 41.0 °F 28.3 °F -9.4 °F 12% 29.50 in 10.0 mi West 40.3 mph 61.0 mph N/A   Overcast
11:16 PM 41.0 °F 28.8 °F -9.4 °F 12% 29.52 in 10.0 mi West 36.8 mph 50.6 mph N/A   Overcast
11:36 PM 41.0 °F 28.0 °F -9.4 °F 12% 29.52 in 10.0 mi West 42.6 mph 52.9 mph N/A   Overcast
11:56 PM 39.2 °F 27.0 °F -9.4 °F 12% 29.55 in 10.0 mi West 32.2 mph 49.5 mph N/A   Mostly Cloudy